SCP
0 0 0 0 0 0 -0 -0 0 -0 -0 -0 -0 -0 -0 0 -0 0 0 0 -0 -0 -0 0 -0 0 -0 -0 -0 -0 -0 -0 -0 -0 -0 -0 -0 -0 -0 -0 -0 -0 -0 -0 -0 -0 -0 -0 -0
0 0 0 0 0 0 -0 -0 0 -0 -0 -0 -0 0 0 -0 -0 0 0 0 -0 -0 -0 -0 -0 -0 -0 -0 -0 -0 -0 -0 -0 -0 -0 -0 -0 -0 -0 -0 -0 -0 -0 -0 -0 -0 -0 -0 -0
0 0 0 0 0 -0 0 0 -0 -0 -0 0 0 -0 -0 0 -0 -0 -0 -0 -0 -0 -0 -0 -0 -0 -0 -0 -0 -0 -0 -0 -0 -0 -0 -0 -0 -0 -0 -0 -0 -0 -0 -0 -0 -0 -0 -0 -0
0 0 0 0 -0 0 -0 -0 -0 -0 -0 -0 -0 -0 0 0 -0 -0 -0 -0 -0 -0 -0 -0 -0 -0 -0 -0 -0 -0 -0 -0 -0 -0 -0 -0 -0 -0 -0 -0 -0 -0 -0 -0 -0 -0 -0 -0 -0
0 0 0 0 -0 0 -0 -0 -0 -0 -0 -0 -0 -0 -0 0 -0 -0 -0 -0 -0 -0 -0 -0 -0 -0 -0 -0 -0 -0 -0 -0 -0 -0 -0 -0 -0 -0 -0 -0 -0 -0 -0 -0 -0 -0 -0 -0 -0
0 0 0 0 0 -0 0 0 0 0 0 -0 0 0 0 -0 -0 -0 -0 -0 -0 -0 -0 -0 0 0 -0 -0 -0 -0 -0 -0 -0 -0 -0 -0 -0 -0 -0 -0 -0 -0 -0 -0 -0 -0 -0 -0 -0
0 0 0 0 0 0 0 0 0 0 0 0 0 0 0 -0 -0 -0 0 0 -0 -0 -0 -0 0 0 0 0 -0 -0 -0 -0 -0 -0 -0 -0 -0 -0 -0 -0 -0 -0 -0 -0 -0 -0 -0 -0 -0
0 0 0 0 0 0 0 0 0 0 0 0 0 0 0 -0 -0 0 0 0 0 0 0 0 0 0 0 0 0 -0 -0 -0 -0 -0 -0 -0 -0 -0 -0 -0 -0 -0 -0 -0 -0 -0 -0 -0 -0
0 0 0 0 0 0 0 0 0 0 0 0 0 0 0 -0 0 0 0 0 0 0 0 0 0 0 0 0 0 0 0 0 0 0 0 0 0 0 0 0 -0 -0 -0 -0 -0 -0 -0 0 -0
0 0 0 0 0 0 0 0 0 0 0 0 0 0 0 0 0 0 0 0 0 0 0 0 0 0 0 0 0 0 0 0 0 0 0 0 0 0 0 0 0 0 0 0 0 0 0 0 0
0 0 0 0 0 0 0 0 0 0 0 0 -0 -0 0 0 0 0 0 0 0 0 0 0 0 0 0 0 0 0 0 0 0 0 0 0 0 0 0 0 0 0 0 0 0 0 0 0 0
0 0 0 0 0 0 0 0 0 0 0 0 0 -0 0 0 0 0 0 0 0 0 0 0 0 0 0 0 0 0 0 0 0 0 0 0 0 0 0 0 0 0 0 0 0 0 0 0 0
0 0 0 0 0 0 0 0 0 0 0 0 0 0 -0 0 0 0 0 0 0 0 0 0 0 0 0 0 0 0 0 0 0 0 0 0 0 0 0 0 0 0 0 0 0 0 0 0 0
0 0 0 0 0 0 0 0 0 0 0 -0 0 0 0 0 0 0 0 0 0 0 0 0 0 0 0 0 0 0 0 0 0 0 0 0 0 0 0 0 0 0 0 0 0 0 0 0 0
0 0 0 0 0 0 0 0 0 0 0 0 0 0 0 0 0 0 0 0 0 0 0 0 0 0 0 0 0 0 0 0 0 0 0 0 0 0 0 0 0 0 0 0 0 0 0 0 0
0 0 0 0 0 0 0 0 0 0 0 0 0 0 0 0 0 0 0 0 0 0 0 0 0 0 0 0 0 0 0 0 0 0 0 0 0 0 0 0 0 0 0 0 0 0 0 0 0
0 0 0 0 0 0 0 0 0 0 0 0 0 0 0 0 0 0 0 0 0 0 0 0 0 0 0 0 0 0 0 0 0 0 0 0 0 0 0 0 0 0 0 0 0 0 0 0 0
0 0 0 0 0 0 0 0 0 0 0 0 0 0 0 0 0 0 0 0 0 0 0 0 0 0 0 0 0 0 0 0 0 0 0 0 0 0 0 0 0 0 0 0 0 0 0 0 0
0 0 0 0 0 0 0 0 0 0 0 0 0 0 0 0 0 0 0 0 0 0 0 0 0 0 0 0 0 0 0 0 0 0 0 0 0 0 0 0 0 0 0 0 0 0 0 0 0
0 0 0 0 0 0 0 0 0 0 0 0 0 0 0 0 0 0 0 0 0 0 0 0 0 0 0 0 0 0 0 0 0 0 0 0 0 0 0 0 0 0 0 0 0 0 0 0 0
0 0 0 0 0 0 0 -0 -0 0 0 0 0 0 0 0 0 0 0 0 0 0 0 0 0 0 0 0 0 0 0 0 0 0 0 0 0 0 0 0 0 0 0 0 0 0 0 0 0
0 0 0 0 0 0 0 -0 0 0 0 0 0 0 0 0 0 0 0 0 0 0 0 0 0 0 0 0 0 0 0 0 0 0 0 0 0 0 0 0 0 0 0 0 0 0 0 0 0
0 0 0 0 0 0 0 0 -0 -0 0 0 0 0 0 0 0 0 0 0 0 0 0 0 0 0 0 0 0 0 0 0 0 0 0 0 0 0 0 0 0 0 0 0 0 0 0 0 0
0 0 0 0 0 0 0 0 -0 0 0 0 0 0 0 0 0 0 0 0 0 0 0 0 0 0 0 0 0 0 0 0 0 0 0 0 0 0 0 0 0 0 0 0 0 0 0 0 0
0 0 0 0 0 0 0 0 0 0 0 0 0 0 0 0 0 0 0 0 0 0 0 0 0 0 0 0 0 0 0 0 0 0 0 0 0 0 0 0 0 0 0 0 0 0 0 0 0
0 0 0 0 0 0 0 0 0 0 0 0 0 0 0 0 0 0 0 0 0 0 0 0 0 0 0 0 0 0 0 0 0 0 0 0 0 0 0 0 0 0 0 0 0 0 0 0 0
0 0 0 0 0 0 0 0 0 0 0 0 0 0 0 0 0 0 0 0 0 0 0 0 0 0 0 0 0 0 0 0 0 0 0 0 0 0 0 0 0 0 0 0 0 0 0 0 0
0 0 0 0 0 0 0 0 0 0 0 0 0 0 0 0 0 0 0 0 0 0 0 0 0 0 0 0 0 0 0 0 0 0 0 0 0 0 0 0 0 0 0 0 0 0 0 0 0
0 0 0 0 0 0 0 0 0 0 0 0 0 0 0 0 0 0 0 0 0 0 0 0 0 0 0 0 0 0 0 0 0 0 0 0 0 0 0 0 0 0 0 0 0 0 0 0 0
0 0 0 0 0 0 0 -0 0 0 0 0 0 0 0 0 0 0 0 0 0 0 0 0 0 0 0 0 0 0 0 0 0 0 0 0 0 0 0 0 0 0 0 0 0 0 0 0 0
Wind_Speed_500mb
6 6 5 8 4 5 9 9 8 13 11 11 11 12 6 26 10 8 33 21 33 25 33 29 26 23 22 18 17 17 19 20 22 23 23 24 25 25 25 27 32 28 22 28 34 38 38 39 40
6 4 5 11 5 5 7 14 8 16 22 14 9 3 4 9 14 26 32 31 36 22 32 31 29 24 21 19 16 16 17 18 20 21 21 23 24 24 28 33 35 25 21 27 32 36 38 38 40
6 3 8 5 7 10 10 6 20 23 15 10 9 5 8 11 14 25 15 40 36 22 27 31 29 26 22 20 15 15 15 15 16 18 20 22 24 25 28 33 30 21 21 29 29 33 35 36 38
7 5 13 5 7 13 13 14 34 21 11 8 6 15 11 17 21 18 30 40 34 26 20 28 29 27 24 20 15 14 13 12 14 16 19 21 22 23 25 29 29 25 24 25 28 30 31 33 36
5 10 7 9 3 10 9 19 25 15 23 21 7 11 13 20 24 19 38 39 37 33 27 28 30 28 25 21 17 15 13 12 13 14 17 19 20 21 24 24 21 19 25 25 25 26 28 31 35
8 9 8 10 9 13 7 13 12 15 19 19 8 6 13 13 20 26 34 36 34 33 29 30 32 29 25 22 19 16 14 13 12 13 14 17 19 21 22 22 21 21 24 24 25 26 28 29 32
6 5 14 15 6 11 7 15 11 13 23 15 5 0 19 18 22 28 32 37 33 31 30 34 35 32 28 24 21 18 15 13 12 11 11 14 17 20 22 23 24 25 26 27 27 27 26 27 32
8 4 14 8 9 4 15 18 8 8 5 23 15 3 17 26 29 30 36 36 37 32 31 32 37 34 31 28 24 20 17 16 14 12 11 12 15 17 21 24 27 29 30 29 28 26 25 27 25
5 5 7 9 11 3 25 12 7 7 11 9 10 3 19 28 30 31 39 38 40 36 35 34 33 34 33 30 26 23 20 18 17 13 13 12 14 16 22 25 27 26 26 26 26 25 23 21 18
6 5 10 17 18 11 18 14 19 6 13 11 15 17 28 26 30 38 43 45 45 43 36 34 35 34 32 31 31 27 27 28 26 21 14 15 13 17 20 23 22 20 20 22 22 21 18 15 8
7 5 12 19 17 12 11 10 12 9 10 29 33 37 34 30 32 41 42 46 50 40 43 38 33 33 37 37 33 32 33 34 32 27 21 12 7 10 16 15 15 15 16 16 15 15 14 12 9
5 13 5 6 5 4 5 7 15 26 27 9 11 20 40 39 38 43 42 51 50 45 44 50 45 40 42 38 35 30 33 34 36 31 29 21 16 13 12 15 12 11 8 5 7 10 10 10 14
8 8 3 3 3 6 10 13 14 30 24 30 24 12 32 35 38 40 39 36 41 56 52 56 49 50 48 43 39 39 37 39 34 38 35 32 24 21 19 17 14 15 12 11 9 7 5 6 12
8 11 9 10 13 9 6 13 12 19 13 37 31 34 32 37 38 41 46 49 50 51 56 60 58 50 51 45 48 49 44 39 40 44 40 38 32 30 24 22 21 16 18 16 15 12 8 5 9
3 7 15 24 14 2 6 14 22 59 33 24 31 41 39 41 43 49 52 57 59 57 59 64 63 68 58 51 45 45 47 46 47 43 39 41 42 40 36 31 28 26 25 25 21 18 17 14 12
6 7 6 7 24 7 6 11 17 6 37 43 38 35 39 45 51 53 54 57 61 60 61 68 71 64 67 55 50 51 51 49 48 46 39 40 45 46 45 39 35 32 32 29 27 27 24 21 18
11 9 13 7 19 9 13 12 5 4 6 18 26 33 41 46 48 53 58 61 62 65 62 74 75 69 68 71 71 69 64 54 44 46 47 46 45 48 50 47 42 40 38 34 32 33 34 30 25
13 8 13 9 13 5 12 24 24 52 40 40 38 39 39 41 48 52 53 60 66 67 71 71 77 73 72 76 71 76 71 64 56 53 50 49 51 46 44 55 49 45 44 41 40 41 40 33 34
17 10 17 13 9 6 14 22 21 37 45 47 50 50 51 53 47 49 52 53 65 65 69 77 81 78 78 82 80 80 70 67 65 62 60 56 55 54 56 56 56 51 49 49 45 47 46 47 42
10 6 17 17 9 4 15 24 33 30 35 62 54 60 60 60 54 53 61 63 61 69 75 79 81 76 82 86 86 81 71 68 68 68 66 60 57 58 61 56 56 57 47 55 52 58 56 51 47
11 14 14 15 7 12 8 15 24 14 41 62 63 70 66 67 55 51 60 73 67 66 76 80 80 78 78 86 82 79 73 69 70 72 71 66 63 66 58 62 65 67 52 46 53 62 60 58 59
11 7 19 10 6 8 8 11 13 27 28 18 46 56 56 52 59 60 47 59 68 67 64 74 76 77 77 82 83 81 77 75 74 71 69 71 70 66 65 62 55 62 60 60 61 49 64 63 58
5 6 4 8 7 12 12 9 13 22 19 26 32 52 40 44 41 42 47 47 57 59 59 70 74 76 79 79 82 76 72 68 65 66 70 73 74 74 72 67 69 67 62 60 60 62 68 68 60
14 8 6 1 5 13 16 17 11 15 17 19 20 30 28 34 35 37 42 48 55 58 58 64 74 79 80 78 80 74 69 67 67 64 65 69 70 73 71 72 69 64 63 63 67 63 67 69 64
6 10 3 4 3 18 7 13 17 10 9 6 13 8 19 25 29 31 34 36 40 46 52 60 68 76 80 78 77 71 66 65 62 58 56 60 65 70 67 70 68 66 65 60 66 64 73 75 66
20 15 11 14 9 10 6 16 11 15 10 19 37 25 18 23 23 32 33 29 32 38 47 57 63 69 72 71 68 67 64 64 59 57 55 56 56 56 59 65 63 61 55 65 63 68 66 69 65
11 17 12 7 4 5 10 20 22 12 20 26 37 28 31 34 35 38 36 29 30 37 44 49 55 61 66 62 59 64 62 64 60 59 56 52 51 51 52 50 46 56 57 54 61 66 68 66 72
8 1 3 5 5 9 15 13 21 16 16 25 16 32 39 30 36 42 38 35 35 35 39 44 47 53 60 55 54 59 60 62 59 58 55 53 51 50 50 49 53 57 58 63 68 67 67 69 71
9 8 9 10 10 9 13 15 5 3 10 9 2 8 14 32 38 43 42 44 38 35 37 41 44 47 55 53 52 56 58 56 56 53 52 51 49 48 49 52 55 59 61 61 63 66 67 66 67
23 21 24 8 5 9 10 36 0 12 11 15 15 12 15 7 22 36 41 40 37 37 37 39 38 39 43 42 46 50 53 53 54 53 53 51 50 50 51 54 55 55 57 59 60 61 61 57 57
Wind_Direction_500mb
186 195 273 316 276 208 114 95 85 103 132 78 53 33 31 45 19 116 135 148 157 188 164 159 153 146 133 131 121 106 89 81 75 70 67 67 70 75 75 79 89 89 81 77 80 82 82 83 86
200 177 296 262 239 214 88 113 144 82 98 106 86 1 282 97 68 134 156 142 148 186 163 163 161 155 145 141 125 109 96 84 79 78 76 76 77 77 81 92 90 101 79 82 84 82 82 84 87
183 170 279 232 276 25 101 116 95 92 108 124 125 71 23 81 106 128 174 147 149 178 172 164 165 160 153 151 137 123 111 96 89 83 77 71 72 78 89 99 105 105 95 86 83 82 83 85 87
111 279 263 282 279 69 62 98 112 128 104 104 54 111 96 95 127 174 154 149 151 165 179 171 170 166 162 162 151 136 125 112 103 93 84 78 74 76 88 105 112 116 99 93 88 86 87 89 92
171 274 275 231 337 96 78 90 141 160 150 149 167 123 107 132 171 166 149 152 155 174 176 178 175 172 170 169 163 153 145 133 116 97 86 79 76 81 93 107 110 98 89 88 85 83 84 88 92
254 266 274 237 184 96 98 141 160 162 128 104 171 269 105 188 166 152 153 159 165 180 184 186 180 178 178 177 175 166 160 150 133 110 94 84 87 92 97 102 100 89 88 85 81 81 83 89 93
256 208 261 295 82 121 159 149 187 193 143 169 130 308 136 177 164 165 159 161 181 185 188 195 185 183 183 185 185 179 173 165 149 127 107 93 96 100 102 104 103 99 94 88 84 82 85 91 98
285 332 259 266 300 217 108 152 195 240 126 135 148 343 154 175 177 170 162 170 183 190 193 191 190 191 190 192 193 190 186 177 166 149 130 112 109 107 106 105 103 101 96 89 85 85 88 98 113
288 316 256 249 227 276 127 168 176 218 115 151 186 124 123 175 179 168 166 179 186 192 197 191 194 197 197 198 198 197 194 187 172 168 151 133 128 121 118 114 111 106 99 93 86 81 85 101 109
232 220 272 22 19 22 133 211 158 184 205 178 180 204 158 187 179 181 179 184 190 197 199 199 197 196 197 201 202 203 206 197 182 179 178 153 138 130 130 126 120 112 107 102 95 90 96 103 106
215 244 14 45 32 33 345 209 265 193 247 210 208 217 192 195 188 192 189 193 195 209 191 200 211 204 200 208 198 206 210 204 188 193 202 205 170 149 150 146 139 135 129 120 114 97 99 106 121
284 239 9 19 28 26 297 290 254 234 243 342 208 220 205 202 204 212 210 206 195 204 195 200 203 204 210 213 212 220 219 215 196 204 208 209 209 209 212 193 172 177 170 171 113 97 97 112 137
227 231 136 217 232 225 290 269 263 270 255 259 253 211 202 212 216 216 229 224 213 194 205 203 203 206 214 211 212 223 224 219 209 200 211 207 217 209 198 216 217 215 212 215 192 165 139 138 154
16 0 259 203 221 214 232 263 232 255 269 242 245 245 213 222 225 219 213 220 222 211 205 212 210 211 213 216 212 221 228 223 216 214 213 214 215 212 211 210 225 231 221 222 212 221 193 191 174
331 294 233 226 202 198 206 277 228 255 246 234 234 239 238 232 224 227 223 217 227 228 202 215 219 201 202 219 217 223 230 229 226 225 216 220 221 215 215 218 218 229 223 230 229 217 211 195 179
236 209 250 4 140 160 167 272 287 280 228 234 236 237 240 240 231 231 224 227 221 232 213 212 223 220 204 206 207 214 227 228 229 224 219 227 230 224 219 222 225 220 225 228 230 224 209 199 188
201 264 221 156 184 125 182 276 66 70 282 261 258 254 249 244 240 238 230 222 228 221 226 214 225 224 208 206 212 214 223 227 227 225 222 223 234 232 228 224 224 229 227 227 228 232 222 201 190
215 218 252 257 189 204 214 256 278 285 273 260 252 253 253 247 240 243 244 228 225 226 223 220 224 226 216 214 217 221 222 229 234 232 230 228 231 234 235 227 229 233 233 221 225 234 214 205 196
289 340 314 326 156 207 240 268 264 272 276 271 262 257 255 250 248 241 244 241 223 227 220 222 225 227 218 216 218 228 227 228 230 231 232 236 234 238 239 234 229 233 238 222 231 233 219 207 202
323 277 281 294 91 152 271 273 279 258 250 254 254 256 255 258 247 244 244 235 234 223 221 224 230 228 219 223 223 231 230 229 231 232 233 231 234 229 238 234 239 241 236 241 234 236 217 210 206
243 238 260 263 308 210 274 270 247 279 243 253 258 258 256 253 252 242 244 235 229 229 228 227 227 228 222 225 224 229 229 230 229 229 232 233 231 229 236 235 245 239 245 251 239 237 248 229 203
249 278 227 259 322 256 152 281 293 300 288 244 253 258 252 253 252 245 241 230 231 237 233 229 225 227 225 226 228 229 232 233 235 236 236 235 233 233 238 239 241 237 232 250 254 246 240 221 211
220 3 92 202 239 302 211 255 252 220 260 263 249 260 262 253 228 226 230 234 236 239 240 227 223 222 227 227 231 231 231 233 237 237 236 236 234 233 233 233 236 236 244 235 244 246 231 224 218
134 87 76 80 200 265 182 216 224 217 232 258 242 256 237 221 216 227 238 235 233 237 235 225 222 223 228 228 231 231 231 233 236 238 237 236 234 235 237 236 236 237 242 243 243 238 234 224 221
190 148 224 286 175 243 156 247 238 190 245 274 292 280 230 239 236 231 225 220 222 223 226 223 222 224 228 228 230 231 230 234 239 242 240 235 234 234 230 233 233 237 242 241 242 238 233 224 220
196 181 177 202 198 260 355 242 262 222 296 278 273 284 233 226 225 219 224 231 232 229 227 227 225 224 229 231 229 228 228 233 239 242 239 239 239 237 232 234 240 237 235 236 237 232 229 227 222
198 213 251 300 58 356 225 269 282 209 233 251 264 261 235 229 231 234 232 240 238 233 233 229 227 225 231 232 228 227 227 233 236 241 241 238 237 235 233 234 235 232 232 239 239 231 227 222 223
178 245 145 261 208 233 259 264 245 315 274 245 236 238 257 240 234 247 243 243 238 235 235 228 224 223 228 232 228 228 228 232 237 239 241 242 242 237 233 234 235 238 238 238 230 227 225 223 225
165 235 227 175 187 186 281 259 178 98 355 196 282 323 309 254 227 241 255 245 234 237 231 225 222 218 224 230 228 230 233 235 238 240 243 243 239 237 236 234 239 237 235 233 231 230 228 224 223
215 221 204 175 240 209 229 263 149 100 55 33 30 342 326 259 242 246 250 235 235 232 226 221 220 223 228 229 230 233 237 237 240 241 242 242 242 238 237 235 234 234 239 236 234 228 224 222 219
Wind_Speed_850mb
6 6 5 8 4 5 9 9 8 13 11 11 11 12 6 26 10 8 33 21 33 25 33 29 26 23 22 18 17 17 19 20 22 23 23 24 25 25 25 27 32 28 22 28 34 38 38 39 40
6 4 5 11 5 5 7 14 8 16 22 14 9 3 4 9 14 26 32 31 36 22 32 31 29 24 21 19 16 16 17 18 20 21 21 23 24 24 28 33 35 25 21 27 32 36 38 38 40
6 3 8 5 7 10 10 6 20 23 15 10 9 5 8 11 14 25 15 40 36 22 27 31 29 26 22 20 15 15 15 15 16 18 20 22 24 25 28 33 30 21 21 29 29 33 35 36 38
7 5 13 5 7 13 13 14 34 21 11 8 6 15 11 17 21 18 30 40 34 26 20 28 29 27 24 20 15 14 13 12 14 16 19 21 22 23 25 29 29 25 24 25 28 30 31 33 36
5 10 7 9 3 10 9 19 25 15 23 21 7 11 13 20 24 19 38 39 37 33 27 28 30 28 25 21 17 15 13 12 13 14 17 19 20 21 24 24 21 19 25 25 25 26 28 31 35
8 9 8 10 9 13 7 13 12 15 19 19 8 6 13 13 20 26 34 36 34 33 29 30 32 29 25 22 19 16 14 13 12 13 14 17 19 21 22 22 21 21 24 24 25 26 28 29 32
6 5 14 15 6 11 7 15 11 13 23 15 5 0 19 18 22 28 32 37 33 31 30 34 35 32 28 24 21 18 15 13 12 11 11 14 17 20 22 23 24 25 26 27 27 27 26 27 32
8 4 14 8 9 4 15 18 8 8 5 23 15 3 17 26 29 30 36 36 37 32 31 32 37 34 31 28 24 20 17 16 14 12 11 12 15 17 21 24 27 29 30 29 28 26 25 27 25
5 5 7 9 11 3 25 12 7 7 11 9 10 3 19 28 30 31 39 38 40 36 35 34 33 34 33 30 26 23 20 18 17 13 13 12 14 16 22 25 27 26 26 26 26 25 23 21 18
6 5 10 17 18 11 18 14 19 6 13 11 15 17 28 26 30 38 43 45 45 43 36 34 35 34 32 31 31 27 27 28 26 21 14 15 13 17 20 23 22 20 20 22 22 21 18 15 8
7 5 12 19 17 12 11 10 12 9 10 29 33 37 34 30 32 41 42 46 50 40 43 38 33 33 37 37 33 32 33 34 32 27 21 12 7 10 16 15 15 15 16 16 15 15 14 12 9
5 13 5 6 5 4 5 7 15 26 27 9 11 20 40 39 38 43 42 51 50 45 44 50 45 40 42 38 35 30 33 34 36 31 29 21 16 13 12 15 12 11 8 5 7 10 10 10 14
8 8 3 3 3 6 10 13 14 30 24 30 24 12 32 35 38 40 39 36 41 56 52 56 49 50 48 43 39 39 37 39 34 38 35 32 24 21 19 17 14 15 12 11 9 7 5 6 12
8 11 9 10 13 9 6 13 12 19 13 37 31 34 32 37 38 41 46 49 50 51 56 60 58 50 51 45 48 49 44 39 40 44 40 38 32 30 24 22 21 16 18 16 15 12 8 5 9
3 7 15 24 14 2 6 14 22 59 33 24 31 41 39 41 43 49 52 57 59 57 59 64 63 68 58 51 45 45 47 46 47 43 39 41 42 40 36 31 28 26 25 25 21 18 17 14 12
6 7 6 7 24 7 6 11 17 6 37 43 38 35 39 45 51 53 54 57 61 60 61 68 71 64 67 55 50 51 51 49 48 46 39 40 45 46 45 39 35 32 32 29 27 27 24 21 18
11 9 13 7 19 9 13 12 5 4 6 18 26 33 41 46 48 53 58 61 62 65 62 74 75 69 68 71 71 69 64 54 44 46 47 46 45 48 50 47 42 40 38 34 32 33 34 30 25
13 8 13 9 13 5 12 24 24 52 40 40 38 39 39 41 48 52 53 60 66 67 71 71 77 73 72 76 71 76 71 64 56 53 50 49 51 46 44 55 49 45 44 41 40 41 40 33 34
17 10 17 13 9 6 14 22 21 37 45 47 50 50 51 53 47 49 52 53 65 65 69 77 81 78 78 82 80 80 70 67 65 62 60 56 55 54 56 56 56 51 49 49 45 47 46 47 42
10 6 17 17 9 4 15 24 33 30 35 62 54 60 60 60 54 53 61 63 61 69 75 79 81 76 82 86 86 81 71 68 68 68 66 60 57 58 61 56 56 57 47 55 52 58 56 51 47
11 14 14 15 7 12 8 15 24 14 41 62 63 70 66 67 55 51 60 73 67 66 76 80 80 78 78 86 82 79 73 69 70 72 71 66 63 66 58 62 65 67 52 46 53 62 60 58 59
11 7 19 10 6 8 8 11 13 27 28 18 46 56 56 52 59 60 47 59 68 67 64 74 76 77 77 82 83 81 77 75 74 71 69 71 70 66 65 62 55 62 60 60 61 49 64 63 58
5 6 4 8 7 12 12 9 13 22 19 26 32 52 40 44 41 42 47 47 57 59 59 70 74 76 79 79 82 76 72 68 65 66 70 73 74 74 72 67 69 67 62 60 60 62 68 68 60
14 8 6 1 5 13 16 17 11 15 17 19 20 30 28 34 35 37 42 48 55 58 58 64 74 79 80 78 80 74 69 67 67 64 65 69 70 73 71 72 69 64 63 63 67 63 67 69 64
6 10 3 4 3 18 7 13 17 10 9 6 13 8 19 25 29 31 34 36 40 46 52 60 68 76 80 78 77 71 66 65 62 58 56 60 65 70 67 70 68 66 65 60 66 64 73 75 66
20 15 11 14 9 10 6 16 11 15 10 19 37 25 18 23 23 32 33 29 32 38 47 57 63 69 72 71 68 67 64 64 59 57 55 56 56 56 59 65 63 61 55 65 63 68 66 69 65
11 17 12 7 4 5 10 20 22 12 20 26 37 28 31 34 35 38 36 29 30 37 44 49 55 61 66 62 59 64 62 64 60 59 56 52 51 51 52 50 46 56 57 54 61 66 68 66 72
8 1 3 5 5 9 15 13 21 16 16 25 16 32 39 30 36 42 38 35 35 35 39 44 47 53 60 55 54 59 60 62 59 58 55 53 51 50 50 49 53 57 58 63 68 67 67 69 71
9 8 9 10 10 9 13 15 5 3 10 9 2 8 14 32 38 43 42 44 38 35 37 41 44 47 55 53 52 56 58 56 56 53 52 51 49 48 49 52 55 59 61 61 63 66 67 66 67
23 21 24 8 5 9 10 36 0 12 11 15 15 12 15 7 22 36 41 40 37 37 37 39 38 39 43 42 46 50 53 53 54 53 53 51 50 50 51 54 55 55 57 59 60 61 61 57 57
Wind_Direction_850mb
186 195 273 316 276 208 114 95 85 103 132 78 53 33 31 45 19 116 135 148 157 188 164 159 153 146 133 131 121 106 89 81 75 70 67 67 70 75 75 79 89 89 81 77 80 82 82 83 86
200 177 296 262 239 214 88 113 144 82 98 106 86 1 282 97 68 134 156 142 148 186 163 163 161 155 145 141 125 109 96 84 79 78 76 76 77 77 81 92 90 101 79 82 84 82 82 84 87
183 170 279 232 276 25 101 116 95 92 108 124 125 71 23 81 106 128 174 147 149 178 172 164 165 160 153 151 137 123 111 96 89 83 77 71 72 78 89 99 105 105 95 86 83 82 83 85 87
111 279 263 282 279 69 62 98 112 128 104 104 54 111 96 95 127 174 154 149 151 165 179 171 170 166 162 162 151 136 125 112 103 93 84 78 74 76 88 105 112 116 99 93 88 86 87 89 92
171 274 275 231 337 96 78 90 141 160 150 149 167 123 107 132 171 166 149 152 155 174 176 178 175 172 170 169 163 153 145 133 116 97 86 79 76 81 93 107 110 98 89 88 85 83 84 88 92
254 266 274 237 184 96 98 141 160 162 128 104 171 269 105 188 166 152 153 159 165 180 184 186 180 178 178 177 175 166 160 150 133 110 94 84 87 92 97 102 100 89 88 85 81 81 83 89 93
256 208 261 295 82 121 159 149 187 193 143 169 130 308 136 177 164 165 159 161 181 185 188 195 185 183 183 185 185 179 173 165 149 127 107 93 96 100 102 104 103 99 94 88 84 82 85 91 98
285 332 259 266 300 217 108 152 195 240 126 135 148 343 154 175 177 170 162 170 183 190 193 191 190 191 190 192 193 190 186 177 166 149 130 112 109 107 106 105 103 101 96 89 85 85 88 98 113
288 316 256 249 227 276 127 168 176 218 115 151 186 124 123 175 179 168 166 179 186 192 197 191 194 197 197 198 198 197 194 187 172 168 151 133 128 121 118 114 111 106 99 93 86 81 85 101 109
232 220 272 22 19 22 133 211 158 184 205 178 180 204 158 187 179 181 179 184 190 197 199 199 197 196 197 201 202 203 206 197 182 179 178 153 138 130 130 126 120 112 107 102 95 90 96 103 106
215 244 14 45 32 33 345 209 265 193 247 210 208 217 192 195 188 192 189 193 195 209 191 200 211 204 200 208 198 206 210 204 188 193 202 205 170 149 150 146 139 135 129 120 114 97 99 106 121
284 239 9 19 28 26 297 290 254 234 243 342 208 220 205 202 204 212 210 206 195 204 195 200 203 204 210 213 212 220 219 215 196 204 208 209 209 209 212 193 172 177 170 171 113 97 97 112 137
227 231 136 217 232 225 290 269 263 270 255 259 253 211 202 212 216 216 229 224 213 194 205 203 203 206 214 211 212 223 224 219 209 200 211 207 217 209 198 216 217 215 212 215 192 165 139 138 154
16 0 259 203 221 214 232 263 232 255 269 242 245 245 213 222 225 219 213 220 222 211 205 212 210 211 213 216 212 221 228 223 216 214 213 214 215 212 211 210 225 231 221 222 212 221 193 191 174
331 294 233 226 202 198 206 277 228 255 246 234 234 239 238 232 224 227 223 217 227 228 202 215 219 201 202 219 217 223 230 229 226 225 216 220 221 215 215 218 218 229 223 230 229 217 211 195 179
236 209 250 4 140 160 167 272 287 280 228 234 236 237 240 240 231 231 224 227 221 232 213 212 223 220 204 206 207 214 227 228 229 224 219 227 230 224 219 222 225 220 225 228 230 224 209 199 188
201 264 221 156 184 125 182 276 66 70 282 261 258 254 249 244 240 238 230 222 228 221 226 214 225 224 208 206 212 214 223 227 227 225 222 223 234 232 228 224 224 229 227 227 228 232 222 201 190
215 218 252 257 189 204 214 256 278 285 273 260 252 253 253 247 240 243 244 228 225 226 223 220 224 226 216 214 217 221 222 229 234 232 230 228 231 234 235 227 229 233 233 221 225 234 214 205 196
289 340 314 326 156 207 240 268 264 272 276 271 262 257 255 250 248 241 244 241 223 227 220 222 225 227 218 216 218 228 227 228 230 231 232 236 234 238 239 234 229 233 238 222 231 233 219 207 202
323 277 281 294 91 152 271 273 279 258 250 254 254 256 255 258 247 244 244 235 234 223 221 224 230 228 219 223 223 231 230 229 231 232 233 231 234 229 238 234 239 241 236 241 234 236 217 210 206
243 238 260 263 308 210 274 270 247 279 243 253 258 258 256 253 252 242 244 235 229 229 228 227 227 228 222 225 224 229 229 230 229 229 232 233 231 229 236 235 245 239 245 251 239 237 248 229 203
249 278 227 259 322 256 152 281 293 300 288 244 253 258 252 253 252 245 241 230 231 237 233 229 225 227 225 226 228 229 232 233 235 236 236 235 233 233 238 239 241 237 232 250 254 246 240 221 211
220 3 92 202 239 302 211 255 252 220 260 263 249 260 262 253 228 226 230 234 236 239 240 227 223 222 227 227 231 231 231 233 237 237 236 236 234 233 233 233 236 236 244 235 244 246 231 224 218
134 87 76 80 200 265 182 216 224 217 232 258 242 256 237 221 216 227 238 235 233 237 235 225 222 223 228 228 231 231 231 233 236 238 237 236 234 235 237 236 236 237 242 243 243 238 234 224 221
190 148 224 286 175 243 156 247 238 190 245 274 292 280 230 239 236 231 225 220 222 223 226 223 222 224 228 228 230 231 230 234 239 242 240 235 234 234 230 233 233 237 242 241 242 238 233 224 220
196 181 177 202 198 260 355 242 262 222 296 278 273 284 233 226 225 219 224 231 232 229 227 227 225 224 229 231 229 228 228 233 239 242 239 239 239 237 232 234 240 237 235 236 237 232 229 227 222
198 213 251 300 58 356 225 269 282 209 233 251 264 261 235 229 231 234 232 240 238 233 233 229 227 225 231 232 228 227 227 233 236 241 241 238 237 235 233 234 235 232 232 239 239 231 227 222 223
178 245 145 261 208 233 259 264 245 315 274 245 236 238 257 240 234 247 243 243 238 235 235 228 224 223 228 232 228 228 228 232 237 239 241 242 242 237 233 234 235 238 238 238 230 227 225 223 225
165 235 227 175 187 186 281 259 178 98 355 196 282 323 309 254 227 241 255 245 234 237 231 225 222 218 224 230 228 230 233 235 238 240 243 243 239 237 236 234 239 237 235 233 231 230 228 224 223
215 221 204 175 240 209 229 263 149 100 55 33 30 342 326 259 242 246 250 235 235 232 226 221 220 223 228 229 230 233 237 237 240 241 242 242 242 238 237 235 234 234 239 236 234 228 224 222 219